Location: Blazny
(46.0612°N, 84.4033°W)
Time: 09:56:13
(UTC-04:00)

ARIANE 6 FM1 Upper Stage - Pass Details

Date: 21 September 2024
Orbit: 564 x 594 km, 62.0° (Epoch: 03 October)

Event Time Altitude Azimuth Distance (km) Brightness Sun altitude
Exits shadow 05:05:26 56° 335° (NNW) 715 3.1 -23.9°
Maximum altitude 05:06:19 79° 47° (NE) 612 2.8 -23.8°
Drops below altitude 10° 05:10:41 10° 135° (SE) 1,927 5.6 -23.1°
Sets 05:12:56 0° 137° (SE) 2,825 6.5 -22.7°
